Time,TemperatureF,DewpointF,PressureIn,WindDirection,WindDirectionDegrees,WindSpeedMPH,WindSpeedGustMPH,Humidity,HourlyPrecipIn,Conditions,Clouds,dailyrainin,SoftwareType,DateUTC
2013-03-30 00:00:00,42.9,30.0,30.16,North,350,2.0,2.0,60,0.00,,,0.00,Wunderground v.1.15,2013-03-30 04:00:00,
2013-03-30 00:02:00,42.9,30.0,30.16,North,350,2.0,3.0,60,0.00,,,0.00,Wunderground v.1.15,2013-03-30 04:02:00,
2013-03-30 00:03:00,42.9,30.0,30.16,North,350,2.0,3.0,60,0.00,,,0.00,Wunderground v.1.15,2013-03-30 04:03:00,
2013-03-30 00:09:00,42.8,29.9,30.16,North,350,2.0,3.0,60,0.00,,,0.00,Wunderground v.1.15,2013-03-30 04:09:00,
2013-03-30 00:14:00,42.8,29.9,30.16,NNW,335,3.0,4.0,60,0.00,,,0.00,Wunderground v.1.15,2013-03-30 04:14:00,
2013-03-30 00:17:00,42.8,29.9,30.16,NNW,335,3.0,4.0,60,0.00,,,0.00,Wunderground v.1.15,2013-03-30 04:17:00,
2013-03-30 00:23:00,42.8,29.9,30.16,NNW,344,4.0,5.0,60,0.00,,,0.00,Wunderground v.1.15,2013-03-30 04:23:00,
2013-03-30 00:28:00,42.8,29.9,30.16,NNW,335,4.0,5.0,60,0.00,,,0.00,Wunderground v.1.15,2013-03-30 04:28:00,
2013-03-30 00:33:00,42.8,29.9,30.16,NNW,332,4.0,4.0,60,0.00,,,0.00,Wunderground v.1.15,2013-03-30 04:33:00,
2013-03-30 00:39:00,42.7,30.2,30.16,NNW,343,4.0,6.0,61,0.00,,,0.00,Wunderground v.1.15,2013-03-30 04:39:00,
2013-03-30 00:45:00,42.7,29.8,30.16,NNW,335,5.0,6.0,60,0.00,,,0.00,Wunderground v.1.15,2013-03-30 04:45:00,
2013-03-30 00:51:00,42.6,29.7,30.16,NNW,342,5.0,5.0,60,0.00,,,0.00,Wunderground v.1.15,2013-03-30 04:51:00,
2013-03-30 00:56:00,42.5,30.0,30.16,NNW,345,4.0,7.0,61,0.00,,,0.00,Wunderground v.1.15,2013-03-30 04:56:00,
2013-03-30 01:01:00,42.6,29.7,30.16,North,5,4.0,4.0,60,0.00,,,0.00,Wunderground v.1.15,2013-03-30 05:01:00,
2013-03-30 01:07:00,42.8,29.5,30.16,North,9,4.0,5.0,59,0.00,,,0.00,Wunderground v.1.15,2013-03-30 05:07:00,
2013-03-30 01:12:00,42.8,29.9,30.16,North,9,3.0,4.0,60,0.00,,,0.00,Wunderground v.1.15,2013-03-30 05:12:00,
2013-03-30 01:18:00,42.6,29.7,30.16,North,355,3.0,4.0,60,0.00,,,0.00,Wunderground v.1.15,2013-03-30 05:18:00,
2013-03-30 01:23:00,42.3,29.8,30.16,North,355,3.0,4.0,61,0.00,,,0.00,Wunderground v.1.15,2013-03-30 05:23:00,
2013-03-30 01:28:00,42.1,29.6,30.16,NNW,344,3.0,6.0,61,0.00,,,0.00,Wunderground v.1.15,2013-03-30 05:28:00,
2013-03-30 01:34:00,42.0,29.5,30.16,North,355,3.0,4.0,61,0.00,,,0.00,Wunderground v.1.15,2013-03-30 05:34:00,
2013-03-30 01:40:00,41.8,29.7,30.16,NNW,345,3.0,4.0,62,0.00,,,0.00,Wunderground v.1.15,2013-03-30 05:40:00,
2013-03-30 01:45:00,41.7,29.6,30.16,NNW,345,3.0,4.0,62,0.00,,,0.00,Wunderground v.1.15,2013-03-30 05:45:00,
2013-03-30 01:51:00,41.7,29.6,30.16,NNW,340,4.0,5.0,62,0.00,,,0.00,Wunderground v.1.15,2013-03-30 05:51:00,
2013-03-30 01:56:00,41.8,29.7,30.16,NNW,344,4.0,5.0,62,0.00,,,0.00,Wunderground v.1.15,2013-03-30 05:56:00,
2013-03-30 02:01:00,41.8,29.7,30.16,North,355,3.0,4.0,62,0.00,,,0.00,Wunderground v.1.15,2013-03-30 06:01:00,
2013-03-30 02:07:00,41.9,29.8,30.16,NNW,340,4.0,5.0,62,0.00,,,0.00,Wunderground v.1.15,2013-03-30 06:07:00,
2013-03-30 02:13:00,41.9,29.8,30.16,NNW,342,4.0,5.0,62,0.00,,,0.00,Wunderground v.1.15,2013-03-30 06:13:00,
2013-03-30 02:19:00,41.9,29.8,30.16,NNW,347,5.0,5.0,62,0.00,,,0.00,Wunderground v.1.15,2013-03-30 06:19:00,
2013-03-30 02:24:00,42.0,29.5,30.16,NNW,344,4.0,5.0,61,0.00,,,0.00,Wunderground v.1.15,2013-03-30 06:24:00,
2013-03-30 02:30:00,41.9,29.4,30.16,NNW,342,4.0,4.0,61,0.00,,,0.00,Wunderground v.1.15,2013-03-30 06:30:00,
2013-03-30 02:36:00,42.0,29.5,30.15,NNW,339,4.0,5.0,61,0.00,,,0.00,Wunderground v.1.15,2013-03-30 06:36:00,
2013-03-30 02:42:00,42.0,29.5,30.15,NNW,338,4.0,5.0,61,0.00,,,0.00,Wunderground v.1.15,2013-03-30 06:42:00,
2013-03-30 02:47:00,42.0,29.5,30.15,NNW,346,4.0,5.0,61,0.00,,,0.00,Wunderground v.1.15,2013-03-30 06:47:00,
2013-03-30 02:52:00,41.9,29.4,30.15,North,355,3.0,4.0,61,0.00,,,0.00,Wunderground v.1.15,2013-03-30 06:52:00,
2013-03-30 02:58:00,42.0,29.5,30.15,NNW,348,3.0,6.0,61,0.00,,,0.00,Wunderground v.1.15,2013-03-30 06:58:00,
2013-03-30 03:04:00,42.2,29.3,30.15,North,350,4.0,4.0,60,0.00,,,0.00,Wunderground v.1.15,2013-03-30 07:04:00,
2013-03-30 03:10:00,42.1,29.2,30.15,North,5,3.0,3.0,60,0.00,,,0.00,Wunderground v.1.15,2013-03-30 07:10:00,
2013-03-30 03:15:00,42.0,29.1,30.15,North,5,3.0,4.0,60,0.00,,,0.00,Wunderground v.1.15,2013-03-30 07:15:00,
2013-03-30 03:21:00,41.9,29.0,30.15,North,355,3.0,4.0,60,0.00,,,0.00,Wunderground v.1.15,2013-03-30 07:21:00,
2013-03-30 03:26:00,41.8,28.9,30.15,NNW,344,3.0,5.0,60,0.00,,,0.00,Wunderground v.1.15,2013-03-30 07:26:00,
2013-03-30 03:32:00,41.8,28.9,30.15,NNW,336,3.0,5.0,60,0.00,,,0.00,Wunderground v.1.15,2013-03-30 07:32:00,
2013-03-30 03:37:00,41.7,28.8,30.15,NNW,346,4.0,5.0,60,0.00,,,0.00,Wunderground v.1.15,2013-03-30 07:37:00,
2013-03-30 03:43:00,41.6,29.1,30.15,North,355,4.0,4.0,61,0.00,,,0.00,Wunderground v.1.15,2013-03-30 07:43:00,
2013-03-30 03:49:00,41.6,28.7,30.15,NNW,348,4.0,5.0,60,0.00,,,0.00,Wunderground v.1.15,2013-03-30 07:49:00,
2013-03-30 03:54:00,41.7,28.8,30.15,NNE,15,3.0,5.0,60,0.00,,,0.00,Wunderground v.1.15,2013-03-30 07:54:00,
2013-03-30 03:59:00,41.8,28.9,30.15,North,351,3.0,5.0,60,0.00,,,0.00,Wunderground v.1.15,2013-03-30 07:59:00,
2013-03-30 04:04:00,41.8,28.5,30.15,North,360,3.0,5.0,59,0.00,,,0.00,Wunderground v.1.15,2013-03-30 08:04:00,
2013-03-30 04:10:00,41.8,28.9,30.15,North,360,3.0,3.0,60,0.00,,,0.00,Wunderground v.1.15,2013-03-30 08:10:00,
2013-03-30 04:15:00,41.7,28.8,30.15,North,5,3.0,6.0,60,0.00,,,0.00,Wunderground v.1.15,2013-03-30 08:15:00,
2013-03-30 04:21:00,41.7,28.8,30.15,North,355,3.0,3.0,60,0.00,,,0.00,Wunderground v.1.15,2013-03-30 08:21:00,
2013-03-30 04:27:00,41.6,28.7,30.15,North,10,3.0,3.0,60,0.00,,,0.00,Wunderground v.1.15,2013-03-30 08:27:00,
2013-03-30 04:33:00,41.6,28.7,30.14,NNE,12,3.0,6.0,60,0.00,,,0.00,Wunderground v.1.15,2013-03-30 08:33:00,
2013-03-30 04:38:00,41.5,28.6,30.14,NNE,17,3.0,6.0,60,0.00,,,0.00,Wunderground v.1.15,2013-03-30 08:38:00,
2013-03-30 04:44:00,41.4,28.5,30.15,North,360,3.0,4.0,60,0.00,,,0.00,Wunderground v.1.15,2013-03-30 08:44:00,
2013-03-30 04:50:00,41.3,28.4,30.15,North,5,3.0,3.0,60,0.00,,,0.00,Wunderground v.1.15,2013-03-30 08:50:00,
2013-03-30 04:56:00,41.1,28.3,30.15,North,9,3.0,5.0,60,0.00,,,0.00,Wunderground v.1.15,2013-03-30 08:56:00,
2013-03-30 05:02:00,41.2,28.4,30.15,NNE,14,3.0,3.0,60,0.00,,,0.00,Wunderground v.1.15,2013-03-30 09:02:00,
2013-03-30 05:07:00,41.1,28.7,30.15,NNE,13,3.0,4.0,61,0.00,,,0.00,Wunderground v.1.15,2013-03-30 09:07:00,
2013-03-30 05:12:00,41.0,28.6,30.15,North,355,3.0,3.0,61,0.00,,,0.00,Wunderground v.1.15,2013-03-30 09:12:00,
2013-03-30 05:18:00,40.9,28.5,30.15,NNE,22,3.0,5.0,61,0.00,,,0.00,Wunderground v.1.15,2013-03-30 09:18:00,
2013-03-30 05:24:00,40.7,28.7,30.15,North,10,3.0,4.0,62,0.00,,,0.00,Wunderground v.1.15,2013-03-30 09:24:00,
2013-03-30 05:30:00,40.6,28.6,30.15,NNE,13,3.0,3.0,62,0.00,,,0.00,Wunderground v.1.15,2013-03-30 09:30:00,
2013-03-30 05:35:00,40.4,28.8,30.15,NNE,24,3.0,4.0,63,0.00,,,0.00,Wunderground v.1.15,2013-03-30 09:35:00,
2013-03-30 05:41:00,40.2,28.6,30.15,NNE,25,3.0,3.0,63,0.00,,,0.00,Wunderground v.1.15,2013-03-30 09:41:00,
2013-03-30 05:47:00,40.1,28.5,30.15,NNE,25,3.0,4.0,63,0.00,,,0.00,Wunderground v.1.15,2013-03-30 09:47:00,
2013-03-30 05:53:00,40.0,28.4,30.15,NNE,30,3.0,5.0,63,0.00,,,0.00,Wunderground v.1.15,2013-03-30 09:53:00,
2013-03-30 05:58:00,39.8,28.6,30.15,NNE,27,3.0,5.0,64,0.00,,,0.00,Wunderground v.1.15,2013-03-30 09:58:00,
2013-03-30 06:04:00,39.6,28.4,30.15,NNE,32,3.0,4.0,64,0.00,,,0.00,Wunderground v.1.15,2013-03-30 10:04:00,
2013-03-30 06:09:00,39.5,28.3,30.16,NE,35,3.0,4.0,64,0.00,,,0.00,Wunderground v.1.15,2013-03-30 10:09:00,
2013-03-30 06:15:00,39.4,28.6,30.16,NNE,32,3.0,4.0,65,0.00,,,0.00,Wunderground v.1.15,2013-03-30 10:15:00,
2013-03-30 06:20:00,39.4,28.6,30.16,NNE,30,3.0,3.0,65,0.00,,,0.00,Wunderground v.1.15,2013-03-30 10:20:00,
2013-03-30 06:26:00,39.4,28.2,30.16,NNE,29,3.0,4.0,64,0.00,,,0.00,Wunderground v.1.15,2013-03-30 10:26:00,
2013-03-30 06:32:00,39.4,28.2,30.16,NNE,29,3.0,3.0,64,0.00,,,0.00,Wunderground v.1.15,2013-03-30 10:32:00,
2013-03-30 06:37:00,39.4,28.2,30.16,NNE,27,3.0,5.0,64,0.00,,,0.00,Wunderground v.1.15,2013-03-30 10:37:00,
2013-03-30 06:42:00,39.3,28.1,30.16,NNE,24,3.0,4.0,64,0.00,,,0.00,Wunderground v.1.15,2013-03-30 10:42:00,
2013-03-30 06:48:00,39.2,28.0,30.16,NNE,27,3.0,4.0,64,0.00,,,0.00,Wunderground v.1.15,2013-03-30 10:48:00,
2013-03-30 06:53:00,39.1,28.3,30.16,NNE,27,2.0,3.0,65,0.00,,,0.00,Wunderground v.1.15,2013-03-30 10:53:00,
2013-03-30 06:58:00,39.1,28.3,30.17,NNE,27,2.0,3.0,65,0.00,,,0.00,Wunderground v.1.15,2013-03-30 10:58:00,
2013-03-30 07:03:00,39.0,28.2,30.17,NNE,27,2.0,2.0,65,0.00,,,0.00,Wunderground v.1.15,2013-03-30 11:03:00,
2013-03-30 07:09:00,38.9,28.1,30.17,NNE,27,3.0,3.0,65,0.00,,,0.00,Wunderground v.1.15,2013-03-30 11:09:00,
2013-03-30 07:15:00,38.9,28.1,30.17,NNE,27,3.0,3.0,65,0.00,,,0.00,Wunderground v.1.15,2013-03-30 11:15:00,
2013-03-30 07:23:00,38.9,28.1,30.18,NNE,27,2.0,3.0,65,0.00,,,0.00,Wunderground v.1.15,2013-03-30 11:23:00,
2013-03-30 07:28:00,38.9,28.5,30.18,NNE,15,2.0,3.0,66,0.00,,,0.00,Wunderground v.1.15,2013-03-30 11:28:00,
2013-03-30 07:33:00,39.0,28.6,30.18,NNE,23,3.0,3.0,66,0.00,,,0.00,Wunderground v.1.15,2013-03-30 11:33:00,
2013-03-30 07:39:00,39.2,28.8,30.18,NNE,22,3.0,3.0,66,0.00,,,0.00,Wunderground v.1.15,2013-03-30 11:39:00,
2013-03-30 07:44:00,39.3,28.9,30.18,NNE,22,3.0,3.0,66,0.00,,,0.00,Wunderground v.1.15,2013-03-30 11:44:00,
2013-03-30 07:51:00,39.6,29.2,30.19,NNE,22,2.0,2.0,66,0.00,,,0.00,Wunderground v.1.15,2013-03-30 11:51:00,
2013-03-30 07:56:00,40.0,29.2,30.18,NNE,27,2.0,4.0,65,0.00,,,0.00,Wunderground v.1.15,2013-03-30 11:56:00,
2013-03-30 08:01:00,40.3,29.5,30.18,NNE,30,2.0,3.0,65,0.00,,,0.00,Wunderground v.1.15,2013-03-30 12:01:00,
2013-03-30 08:07:00,40.6,29.0,30.18,NNE,27,2.0,3.0,63,0.00,,,0.00,Wunderground v.1.15,2013-03-30 12:07:00,
2013-03-30 08:13:00,41.0,29.7,30.18,NNE,28,3.0,3.0,64,0.00,,,0.00,Wunderground v.1.15,2013-03-30 12:13:00,
2013-03-30 08:19:00,41.3,29.3,30.19,NE,35,3.0,4.0,62,0.00,,,0.00,Wunderground v.1.15,2013-03-30 12:19:00,
2013-03-30 08:24:00,41.6,28.7,30.19,NE,38,3.0,4.0,60,0.00,,,0.00,Wunderground v.1.15,2013-03-30 12:24:00,
2013-03-30 08:29:00,41.9,29.0,30.19,NE,42,3.0,4.0,60,0.00,,,0.00,Wunderground v.1.15,2013-03-30 12:29:00,
2013-03-30 08:35:00,42.2,29.7,30.19,NE,46,3.0,4.0,61,0.00,,,0.00,Wunderground v.1.15,2013-03-30 12:35:00,
2013-03-30 08:40:00,42.3,29.0,30.19,NNE,23,3.0,3.0,59,0.00,,,0.00,Wunderground v.1.15,2013-03-30 12:40:00,
2013-03-30 08:45:00,42.5,29.6,30.19,NNE,33,3.0,5.0,60,0.00,,,0.00,Wunderground v.1.15,2013-03-30 12:45:00,
2013-03-30 08:50:00,42.7,29.4,30.19,NE,39,3.0,3.0,59,0.00,,,0.00,Wunderground v.1.15,2013-03-30 12:50:00,
2013-03-30 08:56:00,42.8,29.5,30.19,NE,42,3.0,6.0,59,0.00,,,0.00,Wunderground v.1.15,2013-03-30 12:56:00,
2013-03-30 09:02:00,43.1,29.7,30.19,NE,38,3.0,4.0,59,0.00,,,0.00,Wunderground v.1.15,2013-03-30 13:02:00,
2013-03-30 09:07:00,43.3,29.5,30.19,NE,37,3.0,5.0,58,0.00,,,0.00,Wunderground v.1.15,2013-03-30 13:07:00,
2013-03-30 09:13:00,43.4,29.2,30.19,NNE,29,3.0,6.0,57,0.00,,,0.00,Wunderground v.1.15,2013-03-30 13:13:00,
2013-03-30 09:19:00,43.8,28.7,30.19,NNE,30,4.0,6.0,55,0.00,,,0.00,Wunderground v.1.15,2013-03-30 13:19:00,
2013-03-30 09:24:00,44.1,28.9,30.19,NNE,32,4.0,4.0,55,0.00,,,0.00,Wunderground v.1.15,2013-03-30 13:24:00,
2013-03-30 09:29:00,44.3,28.7,30.19,NE,42,4.0,5.0,54,0.00,,,0.00,Wunderground v.1.15,2013-03-30 13:29:00,
2013-03-30 09:35:00,44.7,28.6,30.19,NE,35,4.0,4.0,53,0.00,,,0.00,Wunderground v.1.15,2013-03-30 13:35:00,
2013-03-30 09:41:00,45.0,29.3,30.19,NE,40,4.0,5.0,54,0.00,,,0.00,Wunderground v.1.15,2013-03-30 13:41:00,
2013-03-30 09:46:00,45.0,28.9,30.19,NE,40,3.0,5.0,53,0.00,,,0.00,Wunderground v.1.15,2013-03-30 13:46:00,
2013-03-30 09:52:00,45.4,29.3,30.19,NE,34,4.0,6.0,53,0.00,,,0.00,Wunderground v.1.15,2013-03-30 13:52:00,
2013-03-30 09:57:00,45.6,29.4,30.19,NNE,26,4.0,6.0,53,0.00,,,0.00,Wunderground v.1.15,2013-03-30 13:57:00,
2013-03-30 10:02:00,45.6,29.0,30.19,NNE,27,4.0,5.0,52,0.00,,,0.00,Wunderground v.1.15,2013-03-30 14:02:00,
2013-03-30 10:07:00,45.9,29.2,30.19,NNE,24,4.0,6.0,52,0.00,,,0.00,Wunderground v.1.15,2013-03-30 14:07:00,
2013-03-30 10:13:00,45.8,28.7,30.19,NE,38,4.0,4.0,51,0.00,,,0.00,Wunderground v.1.15,2013-03-30 14:13:00,
2013-03-30 10:18:00,46.3,30.1,30.19,ENE,74,3.0,5.0,53,0.00,,,0.00,Wunderground v.1.15,2013-03-30 14:18:00,
2013-03-30 10:23:00,46.7,30.5,30.19,NE,41,3.0,4.0,53,0.00,,,0.00,Wunderground v.1.15,2013-03-30 14:23:00,
2013-03-30 10:29:00,46.7,30.0,30.19,North,355,3.0,6.0,52,0.00,,,0.00,Wunderground v.1.15,2013-03-30 14:29:00,
2013-03-30 10:34:00,47.3,31.5,30.19,NE,36,3.0,5.0,54,0.00,,,0.00,Wunderground v.1.15,2013-03-30 14:34:00,
2013-03-30 10:39:00,47.4,31.1,30.19,NE,44,3.0,5.0,53,0.00,,,0.00,Wunderground v.1.15,2013-03-30 14:39:00,
2013-03-30 10:44:00,47.4,29.7,30.19,NNE,33,3.0,5.0,50,0.00,,,0.00,Wunderground v.1.15,2013-03-30 14:44:00,
2013-03-30 10:50:00,47.8,31.9,30.19,NNE,32,3.0,3.0,54,0.00,,,0.00,Wunderground v.1.15,2013-03-30 14:50:00,
2013-03-30 10:56:00,48.1,30.8,30.19,NNW,331,3.0,6.0,51,0.00,,,0.00,Wunderground v.1.15,2013-03-30 14:56:00,
2013-03-30 11:01:00,48.0,29.7,30.19,WNW,290,3.0,6.0,49,0.00,,,0.00,Wunderground v.1.15,2013-03-30 15:01:00,
2013-03-30 11:07:00,48.4,31.1,30.19,NNE,15,3.0,9.0,51,0.00,,,0.00,Wunderground v.1.15,2013-03-30 15:07:00,
2013-03-30 11:13:00,48.0,29.2,30.19,NNW,340,4.0,6.0,48,0.00,,,0.00,Wunderground v.1.15,2013-03-30 15:13:00,
2013-03-30 11:18:00,48.3,31.9,30.19,NW,326,3.0,7.0,53,0.00,,,0.00,Wunderground v.1.15,2013-03-30 15:18:00,
2013-03-30 11:24:00,48.8,28.9,30.19,WNW,296,5.0,8.0,46,0.00,,,0.00,Wunderground v.1.15,2013-03-30 15:24:00,
2013-03-30 11:29:00,49.1,30.7,30.18,NNE,17,5.0,8.0,49,0.00,,,0.00,Wunderground v.1.15,2013-03-30 15:29:00,
2013-03-30 11:34:00,49.0,29.6,30.18,North,5,4.0,8.0,47,0.00,,,0.00,Wunderground v.1.15,2013-03-30 15:34:00,
2013-03-30 11:40:00,49.0,30.1,30.18,North,5,5.0,5.0,48,0.00,,,0.00,Wunderground v.1.15,2013-03-30 15:40:00,
2013-03-30 11:46:00,49.4,31.0,30.18,North,360,5.0,7.0,49,0.00,,,0.00,Wunderground v.1.15,2013-03-30 15:46:00,
2013-03-30 11:51:00,49.2,29.8,30.18,North,350,6.0,6.0,47,0.00,,,0.00,Wunderground v.1.15,2013-03-30 15:51:00,
2013-03-30 11:56:00,49.3,29.9,30.17,NNE,29,5.0,6.0,47,0.00,,,0.00,Wunderground v.1.15,2013-03-30 15:56:00,
2013-03-30 12:02:00,49.5,30.1,30.17,NNW,343,5.0,9.0,47,0.00,,,0.00,Wunderground v.1.15,2013-03-30 16:02:00,
2013-03-30 12:07:00,49.6,28.6,30.17,North,355,5.0,9.0,44,0.00,,,0.00,Wunderground v.1.15,2013-03-30 16:07:00,
2013-03-30 12:13:00,50.4,31.4,30.17,NNW,339,5.0,9.0,48,0.00,,,0.00,Wunderground v.1.15,2013-03-30 16:13:00,
2013-03-30 12:18:00,50.1,29.0,30.17,North,360,5.0,9.0,44,0.00,,,0.00,Wunderground v.1.15,2013-03-30 16:18:00,
2013-03-30 12:23:00,50.1,30.1,30.17,NNE,24,5.0,5.0,46,0.00,,,0.00,Wunderground v.1.15,2013-03-30 16:23:00,
2013-03-30 12:29:00,50.5,29.4,30.16,NNE,15,5.0,9.0,44,0.00,,,0.00,Wunderground v.1.15,2013-03-30 16:29:00,
2013-03-30 12:34:00,50.1,29.6,30.17,NNW,338,7.0,8.0,45,0.00,,,0.00,Wunderground v.1.15,2013-03-30 16:34:00,
2013-03-30 12:40:00,50.3,27.5,30.16,West,274,5.0,5.0,41,0.00,,,0.00,Wunderground v.1.15,2013-03-30 16:40:00,
2013-03-30 12:46:00,51.0,27.5,30.16,WNW,300,5.0,9.0,40,0.00,,,0.00,Wunderground v.1.15,2013-03-30 16:46:00,
2013-03-30 12:51:00,51.0,28.7,30.15,NW,316,6.0,8.0,42,0.00,,,0.00,Wunderground v.1.15,2013-03-30 16:51:00,
2013-03-30 12:56:00,51.1,28.2,30.16,NW,309,5.0,9.0,41,0.00,,,0.00,Wunderground v.1.15,2013-03-30 16:56:00,
2013-03-30 13:02:00,51.5,28.6,30.15,North,11,7.0,10.0,41,0.00,,,0.00,Wunderground v.1.15,2013-03-30 17:02:00,
2013-03-30 13:08:00,51.8,30.6,30.15,NE,45,6.0,10.0,44,0.00,,,0.00,Wunderground v.1.15,2013-03-30 17:08:00,
2013-03-30 13:13:00,51.5,29.1,30.15,NNE,26,4.0,6.0,42,0.00,,,0.00,Wunderground v.1.15,2013-03-30 17:13:00,
2013-03-30 13:19:00,51.0,27.5,30.14,NW,323,5.0,10.0,40,0.00,,,0.00,Wunderground v.1.15,2013-03-30 17:19:00,
2013-03-30 13:24:00,51.7,29.3,30.14,North,350,7.0,10.0,42,0.00,,,0.00,Wunderground v.1.15,2013-03-30 17:24:00,
2013-03-30 13:29:00,51.8,27.6,30.14,NW,319,7.0,10.0,39,0.00,,,0.00,Wunderground v.1.15,2013-03-30 17:29:00,
2013-03-30 13:34:00,52.1,27.9,30.14,North,11,5.0,7.0,39,0.00,,,0.00,Wunderground v.1.15,2013-03-30 17:34:00,
2013-03-30 13:40:00,52.3,28.1,30.13,North,11,4.0,8.0,39,0.00,,,0.00,Wunderground v.1.15,2013-03-30 17:40:00,
2013-03-30 13:46:00,51.2,26.4,30.13,NE,38,5.0,8.0,38,0.00,,,0.00,Wunderground v.1.15,2013-03-30 17:46:00,
2013-03-30 13:52:00,51.7,26.9,30.13,NNE,26,4.0,6.0,38,0.00,,,0.00,Wunderground v.1.15,2013-03-30 17:52:00,
2013-03-30 13:57:00,52.1,27.2,30.13,NNE,25,5.0,6.0,38,0.00,,,0.00,Wunderground v.1.15,2013-03-30 17:57:00,
2013-03-30 14:03:00,52.1,27.9,30.13,NNE,30,5.0,6.0,39,0.00,,,0.00,Wunderground v.1.15,2013-03-30 18:03:00,
2013-03-30 14:08:00,52.3,26.8,30.13,North,360,5.0,16.0,37,0.00,,,0.00,Wunderground v.1.15,2013-03-30 18:08:00,
2013-03-30 14:14:00,52.2,26.0,30.13,ENE,62,5.0,6.0,36,0.00,,,0.00,Wunderground v.1.15,2013-03-30 18:14:00,
2013-03-30 14:20:00,52.8,27.9,30.12,WNW,284,4.0,6.0,38,0.00,,,0.00,Wunderground v.1.15,2013-03-30 18:20:00,
2013-03-30 14:25:00,52.8,25.9,30.12,NW,315,7.0,10.0,35,0.00,,,0.00,Wunderground v.1.15,2013-03-30 18:25:00,
2013-03-30 14:31:00,53.3,27.0,30.12,WNW,283,6.0,6.0,36,0.00,,,0.00,Wunderground v.1.15,2013-03-30 18:31:00,
2013-03-30 14:36:00,53.2,25.5,30.12,North,350,5.0,8.0,34,0.00,,,0.00,Wunderground v.1.15,2013-03-30 18:36:00,
2013-03-30 14:42:00,53.0,26.7,30.11,NE,51,5.0,7.0,36,0.00,,,0.00,Wunderground v.1.15,2013-03-30 18:42:00,
2013-03-30 14:47:00,53.2,28.2,30.12,NNE,19,5.0,10.0,38,0.00,,,0.00,Wunderground v.1.15,2013-03-30 18:47:00,
2013-03-30 14:53:00,53.4,27.8,30.11,NE,46,4.0,5.0,37,0.00,,,0.00,Wunderground v.1.15,2013-03-30 18:53:00,
2013-03-30 14:58:00,53.5,27.8,30.12,North,360,4.0,5.0,37,0.00,,,0.00,Wunderground v.1.15,2013-03-30 18:58:00,
2013-03-30 15:03:00,53.1,28.1,30.12,NW,325,5.0,7.0,38,0.00,,,0.00,Wunderground v.1.15,2013-03-30 19:03:00,
2013-03-30 15:09:00,53.8,26.8,30.11,NW,314,6.0,7.0,35,0.00,,,0.00,Wunderground v.1.15,2013-03-30 19:09:00,
2013-03-30 15:14:00,53.9,25.4,30.11,NW,309,6.0,8.0,33,0.00,,,0.00,Wunderground v.1.15,2013-03-30 19:14:00,
2013-03-30 15:20:00,54.2,25.7,30.11,ESE,113,3.0,5.0,33,0.00,,,0.00,Wunderground v.1.15,2013-03-30 19:20:00,
2013-03-30 15:26:00,54.5,26.7,30.11,North,360,3.0,7.0,34,0.00,,,0.00,Wunderground v.1.15,2013-03-30 19:26:00,
2013-03-30 15:31:00,54.3,27.2,30.10,NE,42,5.0,5.0,35,0.00,,,0.00,Wunderground v.1.15,2013-03-30 19:31:00,
2013-03-30 15:37:00,54.2,28.5,30.10,NNE,24,6.0,10.0,37,0.00,,,0.00,Wunderground v.1.15,2013-03-30 19:37:00,
2013-03-30 15:42:00,54.4,28.0,30.10,NNW,333,4.0,5.0,36,0.00,,,0.00,Wunderground v.1.15,2013-03-30 19:42:00,
2013-03-30 15:48:00,54.2,29.1,30.10,NE,34,4.0,8.0,38,0.00,,,0.00,Wunderground v.1.15,2013-03-30 19:48:00,
2013-03-30 15:54:00,54.2,27.8,30.10,NNE,13,4.0,4.0,36,0.00,,,0.00,Wunderground v.1.15,2013-03-30 19:54:00,
2013-03-30 16:00:00,54.3,27.9,30.10,NW,316,3.0,7.0,36,0.00,,,0.00,Wunderground v.1.15,2013-03-30 20:00:00,
2013-03-30 16:05:00,54.4,26.6,30.09,WSW,248,6.0,8.0,34,0.00,,,0.00,Wunderground v.1.15,2013-03-30 20:05:00,
2013-03-30 16:11:00,54.8,28.3,30.09,ENE,71,6.0,8.0,36,0.00,,,0.00,Wunderground v.1.15,2013-03-30 20:11:00,
2013-03-30 16:17:00,54.3,26.5,30.09,NNE,27,5.0,8.0,34,0.00,,,0.00,Wunderground v.1.15,2013-03-30 20:17:00,
2013-03-30 16:23:00,54.5,28.1,30.09,NE,39,4.0,5.0,36,0.00,,,0.00,Wunderground v.1.15,2013-03-30 20:23:00,
2013-03-30 16:28:00,54.9,28.4,30.09,WNW,284,3.0,7.0,36,0.00,,,0.00,Wunderground v.1.15,2013-03-30 20:28:00,
2013-03-30 16:33:00,55.2,26.6,30.09,West,276,4.0,5.0,33,0.00,,,0.00,Wunderground v.1.15,2013-03-30 20:33:00,
2013-03-30 16:39:00,55.4,27.5,30.09,NNW,329,3.0,6.0,34,0.00,,,0.00,Wunderground v.1.15,2013-03-30 20:39:00,
2013-03-30 16:44:00,55.0,26.4,30.09,NNW,332,4.0,8.0,33,0.00,,,0.00,Wunderground v.1.15,2013-03-30 20:44:00,
2013-03-30 16:49:00,54.7,26.8,30.09,NNW,331,5.0,10.0,34,0.00,,,0.00,Wunderground v.1.15,2013-03-30 20:49:00,
2013-03-30 16:55:00,54.7,26.1,30.09,NNW,340,4.0,6.0,33,0.00,,,0.00,Wunderground v.1.15,2013-03-30 20:55:00,
2013-03-30 17:01:00,54.8,27.6,30.09,NE,45,3.0,4.0,35,0.00,,,0.00,Wunderground v.1.15,2013-03-30 21:01:00,
2013-03-30 17:06:00,54.5,27.4,30.09,NW,320,6.0,9.0,35,0.00,,,0.00,Wunderground v.1.15,2013-03-30 21:06:00,
2013-03-30 17:12:00,54.4,26.6,30.09,NNE,26,6.0,7.0,34,0.00,,,0.00,Wunderground v.1.15,2013-03-30 21:12:00,
2013-03-30 17:18:00,54.7,26.8,30.09,NW,323,5.0,9.0,34,0.00,,,0.00,Wunderground v.1.15,2013-03-30 21:18:00,
2013-03-30 17:24:00,54.7,26.1,30.09,WNW,297,6.0,7.0,33,0.00,,,0.00,Wunderground v.1.15,2013-03-30 21:24:00,
2013-03-30 17:30:00,54.8,25.5,30.09,NW,325,4.0,4.0,32,0.00,,,0.00,Wunderground v.1.15,2013-03-30 21:30:00,
2013-03-30 17:35:00,54.8,25.5,30.09,North,5,3.0,6.0,32,0.00,,,0.00,Wunderground v.1.15,2013-03-30 21:35:00,
2013-03-30 17:40:00,54.6,26.0,30.09,NW,311,5.0,6.0,33,0.00,,,0.00,Wunderground v.1.15,2013-03-30 21:40:00,
2013-03-30 17:46:00,54.5,26.0,30.09,NNE,19,4.0,6.0,33,0.00,,,0.00,Wunderground v.1.15,2013-03-30 21:46:00,
2013-03-30 17:51:00,54.5,26.0,30.09,NNW,338,4.0,4.0,33,0.00,,,0.00,Wunderground v.1.15,2013-03-30 21:51:00,
2013-03-30 17:58:00,54.8,25.5,30.09,WNW,300,3.0,4.0,32,0.00,,,0.00,Wunderground v.1.15,2013-03-30 21:58:00,
2013-03-30 18:03:00,54.8,26.2,30.09,NNE,15,3.0,4.0,33,0.00,,,0.00,Wunderground v.1.15,2013-03-30 22:03:00,
2013-03-30 18:09:00,54.6,25.3,30.09,NNE,15,3.0,4.0,32,0.00,,,0.00,Wunderground v.1.15,2013-03-30 22:09:00,
2013-03-30 18:15:00,54.7,24.6,30.09,North,355,2.0,3.0,31,0.00,,,0.00,Wunderground v.1.15,2013-03-30 22:15:00,
2013-03-30 18:21:00,54.8,26.2,30.09,North,5,2.0,2.0,33,0.00,,,0.00,Wunderground v.1.15,2013-03-30 22:21:00,
2013-03-30 18:27:00,54.8,26.2,30.09,NNW,343,2.0,4.0,33,0.00,,,0.00,Wunderground v.1.15,2013-03-30 22:27:00,
2013-03-30 18:33:00,54.6,25.3,30.09,North,5,2.0,3.0,32,0.00,,,0.00,Wunderground v.1.15,2013-03-30 22:33:00,
2013-03-30 18:38:00,54.4,25.9,30.09,NNW,343,2.0,3.0,33,0.00,,,0.00,Wunderground v.1.15,2013-03-30 22:38:00,
2013-03-30 18:43:00,54.2,27.1,30.09,NNE,13,2.0,3.0,35,0.00,,,0.00,Wunderground v.1.15,2013-03-30 22:43:00,
2013-03-30 18:49:00,54.2,26.4,30.09,North,5,2.0,3.0,34,0.00,,,0.00,Wunderground v.1.15,2013-03-30 22:49:00,
2013-03-30 18:55:00,53.9,25.4,30.09,NW,322,2.0,4.0,33,0.00,,,0.00,Wunderground v.1.15,2013-03-30 22:55:00,
2013-03-30 19:00:00,53.3,25.6,30.09,NW,317,3.0,4.0,34,0.00,,,0.00,Wunderground v.1.15,2013-03-30 23:00:00,
2013-03-30 19:05:00,52.9,26.6,30.09,NW,317,4.0,4.0,36,0.00,,,0.00,Wunderground v.1.15,2013-03-30 23:05:00,
2013-03-30 19:12:00,52.5,24.2,30.10,NW,317,3.0,3.0,33,0.00,,,0.00,Wunderground v.1.15,2013-03-30 23:12:00,
2013-03-30 19:18:00,52.0,24.5,30.09,NW,317,3.0,5.0,34,0.00,,,0.00,Wunderground v.1.15,2013-03-30 23:18:00,
2013-03-30 19:24:00,51.6,24.1,30.09,NW,317,2.0,2.0,34,0.00,,,0.00,Wunderground v.1.15,2013-03-30 23:24:00,
2013-03-30 19:29:00,51.4,23.9,30.10,NW,317,1.0,2.0,34,0.00,,,0.00,Wunderground v.1.15,2013-03-30 23:29:00,
2013-03-30 19:34:00,51.3,24.5,30.09,NW,317,0.0,0.0,35,0.00,,,0.00,Wunderground v.1.15,2013-03-30 23:34:00,
2013-03-30 19:39:00,51.2,23.8,30.09,NW,317,0.0,0.0,34,0.00,,,0.00,Wunderground v.1.15,2013-03-30 23:39:00,
2013-03-30 19:45:00,50.9,24.2,30.09,NW,317,0.0,0.0,35,0.00,,,0.00,Wunderground v.1.15,2013-03-30 23:45:00,
2013-03-30 19:50:00,50.7,24.0,30.09,NW,317,0.0,2.0,35,0.00,,,0.00,Wunderground v.1.15,2013-03-30 23:50:00,
2013-03-30 19:56:00,50.4,23.1,30.09,NW,317,1.0,2.0,34,0.00,,,0.00,Wunderground v.1.15,2013-03-30 23:56:00,
2013-03-30 20:02:00,50.2,23.6,30.09,NW,317,1.0,2.0,35,0.00,,,0.00,Wunderground v.1.15,2013-03-31 00:02:00,
2013-03-30 20:07:00,50.1,22.8,30.09,NW,311,1.0,2.0,34,0.00,,,0.00,Wunderground v.1.15,2013-03-31 00:07:00,
2013-03-30 20:13:00,50.1,22.8,30.09,NW,309,2.0,2.0,34,0.00,,,0.00,Wunderground v.1.15,2013-03-31 00:13:00,
2013-03-30 20:18:00,50.0,22.7,30.09,NW,309,2.0,2.0,34,0.00,,,0.00,Wunderground v.1.15,2013-03-31 00:18:00,
2013-03-30 20:23:00,49.8,22.5,30.10,NW,309,1.0,2.0,34,0.00,,,0.00,Wunderground v.1.15,2013-03-31 00:23:00,
2013-03-30 20:29:00,49.6,22.3,30.10,NW,309,1.0,3.0,34,0.00,,,0.00,Wunderground v.1.15,2013-03-31 00:29:00,
2013-03-30 20:35:00,49.6,22.3,30.11,WNW,299,2.0,3.0,34,0.00,,,0.00,Wunderground v.1.15,2013-03-31 00:35:00,
2013-03-30 20:41:00,49.6,22.3,30.11,WNW,296,2.0,3.0,34,0.00,,,0.00,Wunderground v.1.15,2013-03-31 00:41:00,
2013-03-30 20:47:00,49.4,22.9,30.11,West,267,3.0,4.0,35,0.00,,,0.00,Wunderground v.1.15,2013-03-31 00:47:00,
2013-03-30 20:53:00,49.2,22.7,30.11,West,266,3.0,3.0,35,0.00,,,0.00,Wunderground v.1.15,2013-03-31 00:53:00,
2013-03-30 20:58:00,49.0,22.5,30.11,West,266,2.0,3.0,35,0.00,,,0.00,Wunderground v.1.15,2013-03-31 00:58:00,
2013-03-30 21:04:00,48.8,23.0,30.12,West,266,2.0,3.0,36,0.00,,,0.00,Wunderground v.1.15,2013-03-31 01:04:00,
2013-03-30 21:09:00,48.6,22.8,30.12,West,266,2.0,3.0,36,0.00,,,0.00,Wunderground v.1.15,2013-03-31 01:09:00,
2013-03-30 21:15:00,48.5,22.7,30.11,SSW,213,3.0,4.0,36,0.00,,,0.00,Wunderground v.1.15,2013-03-31 01:15:00,
2013-03-30 21:20:00,48.2,23.1,30.12,SW,219,3.0,3.0,37,0.00,,,0.00,Wunderground v.1.15,2013-03-31 01:20:00,
2013-03-30 21:26:00,47.8,23.4,30.12,SW,223,2.0,3.0,38,0.00,,,0.00,Wunderground v.1.15,2013-03-31 01:26:00,
2013-03-30 21:32:00,47.5,23.7,30.12,SW,226,2.0,2.0,39,0.00,,,0.00,Wunderground v.1.15,2013-03-31 01:32:00,
2013-03-30 21:37:00,47.3,23.6,30.12,SW,226,3.0,4.0,39,0.00,,,0.00,Wunderground v.1.15,2013-03-31 01:37:00,
2013-03-30 21:43:00,47.3,24.2,30.12,SW,223,3.0,5.0,40,0.00,,,0.00,Wunderground v.1.15,2013-03-31 01:43:00,
2013-03-30 21:48:00,47.2,24.1,30.12,SW,227,3.0,5.0,40,0.00,,,0.00,Wunderground v.1.15,2013-03-31 01:48:00,
2013-03-30 21:54:00,47.2,24.1,30.12,SW,234,3.0,4.0,40,0.00,,,0.00,Wunderground v.1.15,2013-03-31 01:54:00,
2013-03-30 22:00:00,47.1,24.6,30.12,SW,227,3.0,3.0,41,0.00,,,0.00,Wunderground v.1.15,2013-03-31 02:00:00,
2013-03-30 22:05:00,46.9,25.0,30.12,SW,224,3.0,3.0,42,0.00,,,0.00,Wunderground v.1.15,2013-03-31 02:05:00,
2013-03-30 22:11:00,46.7,25.4,30.11,SW,230,3.0,3.0,43,0.00,,,0.00,Wunderground v.1.15,2013-03-31 02:11:00,
2013-03-30 22:17:00,46.4,25.6,30.12,SW,230,3.0,4.0,44,0.00,,,0.00,Wunderground v.1.15,2013-03-31 02:17:00,
2013-03-30 22:23:00,46.1,25.9,30.12,SW,226,3.0,5.0,45,0.00,,,0.00,Wunderground v.1.15,2013-03-31 02:23:00,
2013-03-30 22:28:00,45.9,26.3,30.12,SW,229,3.0,5.0,46,0.00,,,0.00,Wunderground v.1.15,2013-03-31 02:28:00,
2013-03-30 22:33:00,45.8,26.2,30.12,SW,232,3.0,4.0,46,0.00,,,0.00,Wunderground v.1.15,2013-03-31 02:33:00,
2013-03-30 22:39:00,45.7,26.6,30.12,SW,235,3.0,5.0,47,0.00,,,0.00,Wunderground v.1.15,2013-03-31 02:39:00,
2013-03-30 22:44:00,45.6,27.0,30.12,SW,234,3.0,4.0,48,0.00,,,0.00,Wunderground v.1.15,2013-03-31 02:44:00,
2013-03-30 22:49:00,45.5,26.9,30.11,SW,227,3.0,4.0,48,0.00,,,0.00,Wunderground v.1.15,2013-03-31 02:49:00,
2013-03-30 22:54:00,45.6,27.0,30.11,SW,224,3.0,4.0,48,0.00,,,0.00,Wunderground v.1.15,2013-03-31 02:54:00,
2013-03-30 23:00:00,45.6,27.5,30.11,SW,228,3.0,3.0,49,0.00,,,0.00,Wunderground v.1.15,2013-03-31 03:00:00,
2013-03-30 23:05:00,45.5,27.4,30.11,SW,228,3.0,5.0,49,0.00,,,0.00,Wunderground v.1.15,2013-03-31 03:05:00,
2013-03-30 23:12:00,45.5,27.4,30.11,SW,229,3.0,4.0,49,0.00,,,0.00,Wunderground v.1.15,2013-03-31 03:12:00,
2013-03-30 23:17:00,45.5,27.4,30.11,SW,230,3.0,4.0,49,0.00,,,0.00,Wunderground v.1.15,2013-03-31 03:17:00,
2013-03-30 23:23:00,45.7,27.6,30.11,SW,231,3.0,4.0,49,0.00,,,0.00,Wunderground v.1.15,2013-03-31 03:23:00,
2013-03-30 23:29:00,45.9,27.3,30.10,SW,229,4.0,4.0,48,0.00,,,0.00,Wunderground v.1.15,2013-03-31 03:29:00,
2013-03-30 23:35:00,46.1,27.0,30.10,SW,232,4.0,4.0,47,0.00,,,0.00,Wunderground v.1.15,2013-03-31 03:35:00,
2013-03-30 23:41:00,46.0,27.4,30.10,SW,227,3.0,4.0,48,0.00,,,0.00,Wunderground v.1.15,2013-03-31 03:41:00,
2013-03-30 23:46:00,45.7,28.1,30.10,SW,227,3.0,5.0,50,0.00,,,0.00,Wunderground v.1.15,2013-03-31 03:46:00,
2013-03-30 23:52:00,45.2,28.1,30.10,SW,233,4.0,4.0,51,0.00,,,0.00,Wunderground v.1.15,2013-03-31 03:52:00,
2013-03-30 23:58:00,45.0,28.4,30.10,SW,219,4.0,6.0,52,0.00,,,0.00,Wunderground v.1.15,2013-03-31 03:58:00,